Tracking 18851 objects as of 25-Nov-2017
HD Live streaming from Space Station
objects crossing your sky now

FENGYUN 1C DEB

Track FENGYUN 1C DEB now!
10-day predictions


NORAD ID: 32184
Int'l Code: 1999-025CUE
Perigee: 496.1 km
Apogee: 871.7 km
Inclination: 98.3 °
Period: 98.3 minutes
Semi major axis: 7054 km
RCS: 0.0104 m2 (small)
Launch date: May 10, 1999
Source: People's Republic of China (PRC)
Launch site: Taiyaun Space Center, China (TSC)

Note: This is SATELLITE DEBRIS
aabbcc
Your satellite tracking list
Your tracking list is empty




NASA's NSSDC Master Catalog

Two Line Element Set (TLE):
1 32184U 99025CUE 17327.62504094 +.00001184 +00000-0 +13758-3 0  9994
2 32184 098.2780 027.5674 0266205 088.7005 274.4676 14.65099995549667
Source of the keplerian elements: AFSPC